DLH06N EDDM-LFPG

Flight info

Callsign DLH06N
Flight time 1h 15m
Altitude 36000
Route GIVMI6Q GIVMI Y101 INBED DCT REKDI DCT LOHRE DCT BOMBI DCT RUDUS DCT BETEX DCT DIK UN857 TOLVU DCT RAPOR DCT VEDUS
Aircraft A320/M-SDE2E3FGIJ1LORWXYZ/HB1

Departure

Time 2026-05-04 15:02
Airport Munich Airport (EDDM)

Arrival

Time 2026-05-04 16:17
Airport Charles de Gaulle International Airport (LFPG)
Time Latitude Longitude Altitude Speed Heading
2026-05-04 14:36 48.35730 11.79688 1486 ft 0 kts 83°
2026-05-04 14:52 48.35729 11.79674 1485 ft 4 kts 83°
2026-05-04 14:52 48.35726 11.79633 1475 ft 4 kts 83°
2026-05-04 14:53 48.35724 11.79601 1475 ft 4 kts 81°
2026-05-04 14:53 48.35716 11.79565 1470 ft 4 kts 47°
2026-05-04 14:53 48.35695 11.79548 1485 ft 4 kts 355°
2026-05-04 14:53 48.35674 11.79552 1471 ft 1 kts 353°
2026-05-04 14:54 48.35673 11.79552 1485 ft 0 kts 353°
2026-05-04 14:55 48.35682 11.79551 1478 ft 5 kts 354°
2026-05-04 14:56 48.35743 11.79541 1472 ft 12 kts 354°
2026-05-04 14:56 48.35841 11.79523 1485 ft 16 kts 353°
2026-05-04 14:56 48.35953 11.79504 1472 ft 17 kts 353°
2026-05-04 14:56 48.36039 11.79489 1481 ft 6 kts 353°
2026-05-04 14:57 48.36086 11.79468 1473 ft 10 kts 324°
2026-05-04 14:57 48.36096 11.79342 1485 ft 16 kts 262°
2026-05-04 14:57 48.36083 11.79174 1485 ft 17 kts 264°
2026-05-04 14:57 48.36070 11.78992 1485 ft 18 kts 262°
2026-05-04 14:58 48.36054 11.78801 1485 ft 18 kts 263°
2026-05-04 14:58 48.36038 11.78612 1475 ft 18 kts 263°
2026-05-04 14:58 48.36024 11.78430 1477 ft 17 kts 264°
2026-05-04 14:58 48.36012 11.78257 1476 ft 16 kts 263°
2026-05-04 14:59 48.35999 11.78098 1481 ft 14 kts 263°
2026-05-04 14:59 48.35989 11.77959 1485 ft 12 kts 263°
2026-05-04 14:59 48.35962 11.77613 1475 ft 21 kts 263°
2026-05-04 15:00 48.35944 11.77375 1480 ft 25 kts 263°
2026-05-04 15:00 48.35927 11.77137 1485 ft 16 kts 266°
2026-05-04 15:00 48.35981 11.76989 1475 ft 12 kts 333°
2026-05-04 15:01 48.36188 11.76947 1485 ft 19 kts 353°
2026-05-04 15:01 48.36285 11.76965 1475 ft 14 kts 50°
2026-05-04 15:01 48.36318 11.77292 1485 ft 63 kts 83°
2026-05-04 15:01 48.36394 11.78284 1475 ft 125 kts 83°
2026-05-04 15:02 48.36519 11.79800 1611 ft 161 kts 82°
2026-05-04 15:02 48.36640 11.81478 2308 ft 163 kts 83°
2026-05-04 15:02 48.36773 11.83240 2832 ft 176 kts 83°
2026-05-04 15:02 48.36977 11.85170 3134 ft 198 kts 70°
2026-05-04 15:03 48.37903 11.86702 3615 ft 206 kts 23°
2026-05-04 15:03 48.39311 11.87097 4216 ft 208 kts
2026-05-04 15:03 48.40800 11.86981 4574 ft 227 kts 344°
2026-05-04 15:03 48.42256 11.85802 4921 ft 252 kts 318°
2026-05-04 15:04 48.43431 11.83762 5352 ft 271 kts 308°
2026-05-04 15:04 48.44644 11.81539 6135 ft 278 kts 309°
2026-05-04 15:04 48.45902 11.79308 6958 ft 282 kts 309°
2026-05-04 15:04 48.47186 11.77057 7798 ft 285 kts 309°
2026-05-04 15:05 48.48486 11.74786 8651 ft 287 kts 309°
2026-05-04 15:05 48.49795 11.72493 9523 ft 290 kts 308°
2026-05-04 15:05 48.51117 11.70172 10308 ft 294 kts 307°
2026-05-04 15:05 48.52456 11.67818 11052 ft 298 kts 307°
2026-05-04 15:06 48.53812 11.65428 11767 ft 302 kts 307°
2026-05-04 15:06 48.55185 11.63002 12487 ft 306 kts 307°
2026-05-04 15:06 48.56579 11.60537 13212 ft 311 kts 307°
2026-05-04 15:07 48.59525 11.55315 13877 ft 348 kts 307°
2026-05-04 15:07 48.61117 11.52481 14403 ft 358 kts 307°
2026-05-04 15:07 48.62734 11.49602 15063 ft 361 kts 307°
2026-05-04 15:07 48.64366 11.46700 15707 ft 364 kts 307°
2026-05-04 15:08 48.66015 11.43774 16326 ft 367 kts 306°
2026-05-04 15:08 48.67679 11.40819 16959 ft 370 kts 306°
2026-05-04 15:08 48.69367 11.37858 17589 ft 374 kts 309°
2026-05-04 15:08 48.71342 11.35243 18235 ft 381 kts 321°
2026-05-04 15:09 48.73552 11.33002 18789 ft 384 kts 323°
2026-05-04 15:09 48.75779 11.30756 19334 ft 386 kts 322°
2026-05-04 15:09 48.78017 11.28489 19857 ft 388 kts 322°
2026-05-04 15:10 48.82536 11.23910 20914 ft 393 kts 323°
2026-05-04 15:10 48.84926 11.21845 21410 ft 399 kts 332°
2026-05-04 15:10 48.89306 11.19477 22260 ft 404 kts 338°
2026-05-04 15:11 48.91980 11.18130 22739 ft 407 kts 338°
2026-05-04 15:11 48.94679 11.16769 23225 ft 409 kts 338°
2026-05-04 15:11 48.97388 11.15396 23672 ft 411 kts 338°
2026-05-04 15:11 49.00106 11.14016 24100 ft 413 kts 338°
2026-05-04 15:12 49.02839 11.12628 24510 ft 415 kts 338°
2026-05-04 15:12 49.05586 11.11226 24906 ft 417 kts 338°
2026-05-04 15:12 49.08343 11.09813 25292 ft 419 kts 338°
2026-05-04 15:12 49.11109 11.08394 25689 ft 421 kts 338°
2026-05-04 15:13 49.13893 11.06966 26054 ft 424 kts 338°
2026-05-04 15:13 49.16701 11.05529 26428 ft 426 kts 338°
2026-05-04 15:13 49.19515 11.04091 26798 ft 428 kts 338°
2026-05-04 15:13 49.22345 11.02642 27190 ft 430 kts 338°
2026-05-04 15:14 49.25186 11.01184 27566 ft 431 kts 338°
2026-05-04 15:14 49.28039 10.99717 27931 ft 433 kts 338°
2026-05-04 15:14 49.30899 10.98237 28295 ft 435 kts 338°
2026-05-04 15:14 49.33770 10.96743 28654 ft 436 kts 336°
2026-05-04 15:15 49.36534 10.94878 28994 ft 434 kts 327°
2026-05-04 15:15 49.39032 10.92349 29326 ft 430 kts 316°
2026-05-04 15:15 49.41056 10.89035 29648 ft 425 kts 301°
2026-05-04 15:16 49.43829 10.81085 30263 ft 424 kts 293°
2026-05-04 15:16 49.45132 10.77024 30541 ft 426 kts 292°
2026-05-04 15:16 49.47715 10.68862 31081 ft 428 kts 292°
2026-05-04 15:17 49.49020 10.64738 31355 ft 429 kts 292°
2026-05-04 15:17 49.51611 10.56593 32101 ft 426 kts 292°
2026-05-04 15:17 49.52913 10.52492 32447 ft 425 kts 292°
2026-05-04 15:18 49.54207 10.48404 32809 ft 424 kts 292°
2026-05-04 15:18 49.55492 10.44333 33165 ft 422 kts 292°
2026-05-04 15:18 49.56776 10.40268 33509 ft 422 kts 292°
2026-05-04 15:19 49.59331 10.32159 34217 ft 419 kts 292°
2026-05-04 15:19 49.60599 10.28111 34534 ft 419 kts 292°
2026-05-04 15:19 49.63123 10.20024 35061 ft 419 kts 292°
2026-05-04 15:20 49.64385 10.15978 35288 ft 419 kts 292°
2026-05-04 15:20 49.65646 10.11926 35514 ft 419 kts 292°
2026-05-04 15:20 49.66906 10.07877 35736 ft 419 kts 292°
2026-05-04 15:20 49.68170 10.03816 35935 ft 419 kts 292°
2026-05-04 15:21 49.70674 9.95755 36001 ft 414 kts 291°
2026-05-04 15:22 49.74392 9.83724 35979 ft 414 kts 291°
2026-05-04 15:22 49.78084 9.71714 35983 ft 414 kts 291°
2026-05-04 15:23 49.80544 9.63677 35993 ft 414 kts 291°
2026-05-04 15:23 49.83007 9.55613 35995 ft 413 kts 291°
2026-05-04 15:24 49.87901 9.39485 35990 ft 414 kts 290°
2026-05-04 15:25 49.90326 9.31456 35984 ft 414 kts 290°
2026-05-04 15:26 49.93999 9.19270 35984 ft 414 kts 290°
2026-05-04 15:26 49.97613 9.07165 35984 ft 414 kts 290°
2026-05-04 15:27 49.99548 8.94524 35967 ft 399 kts 262°
2026-05-04 15:28 49.98763 8.81458 35978 ft 412 kts 261°
2026-05-04 15:29 49.97925 8.68088 35975 ft 415 kts 261°
2026-05-04 15:30 49.95927 8.36856 36000 ft 415 kts 261°
2026-05-04 15:31 49.95047 8.23490 36007 ft 416 kts 261°
2026-05-04 15:32 49.93543 8.01162 35999 ft 416 kts 261°
2026-05-04 15:34 49.92000 7.78836 35990 ft 417 kts 261°
2026-05-04 15:34 49.91041 7.65422 35998 ft 417 kts 260°
2026-05-04 15:35 49.90076 7.51990 35997 ft 418 kts 260°
2026-05-04 15:36 49.89092 7.38557 35989 ft 418 kts 260°
2026-05-04 15:36 49.88424 7.29593 35998 ft 418 kts 260°
2026-05-04 15:37 49.87749 7.20631 36014 ft 419 kts 260°
2026-05-04 15:37 49.87069 7.11664 36009 ft 419 kts 259°
2026-05-04 15:38 49.86383 7.02712 36002 ft 418 kts 259°
2026-05-04 15:38 49.85689 6.93752 36001 ft 419 kts 259°
2026-05-04 15:39 49.84991 6.84793 35981 ft 419 kts 259°
2026-05-04 15:40 49.83803 6.71393 35995 ft 418 kts 256°
2026-05-04 15:40 49.82713 6.62578 35988 ft 418 kts 255°
2026-05-04 15:41 49.81583 6.53720 35990 ft 418 kts 256°
2026-05-04 15:41 49.80497 6.44876 35990 ft 418 kts 256°
2026-05-04 15:42 49.79445 6.36022 35990 ft 419 kts 256°
2026-05-04 15:42 49.78405 6.27209 36008 ft 419 kts 256°
2026-05-04 15:43 49.77340 6.18335 35999 ft 420 kts 256°
2026-05-04 15:43 49.76262 6.09455 36000 ft 420 kts 256°
2026-05-04 15:44 49.75178 6.00574 35998 ft 420 kts 256°
2026-05-04 15:44 49.74079 5.91699 35995 ft 420 kts 256°
2026-05-04 15:45 49.72982 5.82810 36010 ft 421 kts 255°
2026-05-04 15:45 49.71878 5.73921 36003 ft 422 kts 255°
2026-05-04 15:46 49.70762 5.65017 35996 ft 422 kts 255°
2026-05-04 15:46 49.69633 5.56130 35987 ft 422 kts 255°
2026-05-04 15:47 49.68503 5.47236 35982 ft 422 kts 255°
2026-05-04 15:47 49.67367 5.38349 36002 ft 422 kts 255°
2026-05-04 15:48 49.66220 5.29455 35987 ft 423 kts 255°
2026-05-04 15:48 49.64563 5.16058 35980 ft 424 kts 256°
2026-05-04 15:49 49.63461 5.07128 35980 ft 424 kts 255°
2026-05-04 15:49 49.62337 4.98191 35979 ft 424 kts 255°
2026-05-04 15:50 49.61211 4.89261 35996 ft 424 kts 255°
2026-05-04 15:50 49.60062 4.80287 35783 ft 435 kts 255°
2026-05-04 15:51 49.59470 4.75696 35464 ft 436 kts 255°
2026-05-04 15:51 49.58884 4.71134 34921 ft 432 kts 255°
2026-05-04 15:51 49.58306 4.66622 34408 ft 427 kts 255°
2026-05-04 15:51 49.57730 4.62146 33737 ft 426 kts 254°
2026-05-04 15:52 49.57149 4.57675 33104 ft 423 kts 254°
2026-05-04 15:52 49.56582 4.53302 32396 ft 422 kts 254°
2026-05-04 15:52 49.56006 4.48877 31719 ft 420 kts 254°
2026-05-04 15:52 49.55422 4.44425 31133 ft 417 kts 255°
2026-05-04 15:53 49.54850 4.40063 30551 ft 414 kts 255°
2026-05-04 15:53 49.54288 4.35794 29998 ft 411 kts 255°
2026-05-04 15:53 49.53720 4.31506 29384 ft 407 kts 255°
2026-05-04 15:53 49.53156 4.27250 28760 ft 404 kts 255°
2026-05-04 15:54 49.52600 4.23057 28156 ft 400 kts 255°
2026-05-04 15:54 49.52043 4.18871 27565 ft 397 kts 255°
2026-05-04 15:54 49.51486 4.14726 26989 ft 394 kts 255°
2026-05-04 15:54 49.50932 4.10604 26419 ft 391 kts 255°
2026-05-04 15:55 49.50386 4.06520 25873 ft 389 kts 255°
2026-05-04 15:55 49.49842 4.02458 25323 ft 386 kts 255°
2026-05-04 15:55 49.49297 3.98433 24782 ft 383 kts 255°
2026-05-04 15:55 49.48751 3.94434 24251 ft 381 kts 256°
2026-05-04 15:56 49.48208 3.90458 23724 ft 378 kts 256°
2026-05-04 15:56 49.47670 3.86512 23159 ft 376 kts 256°
2026-05-04 15:56 49.47315 3.83910 22781 ft 375 kts 256°
2026-05-04 15:56 49.46780 3.80002 22231 ft 372 kts 256°
2026-05-04 15:57 49.46248 3.76119 21692 ft 370 kts 256°
2026-05-04 15:57 49.45719 3.72269 21199 ft 367 kts 256°
2026-05-04 15:57 49.45195 3.68455 20702 ft 364 kts 256°
2026-05-04 15:57 49.44670 3.64658 20209 ft 362 kts 256°
2026-05-04 15:58 49.44145 3.60888 19731 ft 360 kts 256°
2026-05-04 15:58 49.43616 3.57112 18906 ft 367 kts 256°
2026-05-04 15:58 49.43067 3.53218 18042 ft 377 kts 257°
2026-05-04 15:58 49.42512 3.49268 17445 ft 380 kts 257°
2026-05-04 15:59 49.41917 3.45312 16969 ft 380 kts 252°
2026-05-04 15:59 49.40978 3.41538 16690 ft 379 kts 247°
2026-05-04 15:59 49.39968 3.37800 16429 ft 379 kts 247°
2026-05-04 15:59 49.38966 3.34069 16159 ft 378 kts 247°
2026-05-04 16:00 49.37968 3.30347 15889 ft 377 kts 247°
2026-05-04 16:00 49.36974 3.26628 15621 ft 376 kts 247°
2026-05-04 16:00 49.35982 3.22915 15353 ft 375 kts 247°
2026-05-04 16:00 49.34990 3.19212 15080 ft 375 kts 247°
2026-05-04 16:01 49.33998 3.15520 14812 ft 374 kts 247°
2026-05-04 16:01 49.33009 3.11838 14540 ft 373 kts 247°
2026-05-04 16:01 49.32018 3.08159 14270 ft 373 kts 247°
2026-05-04 16:01 49.31023 3.04489 13992 ft 373 kts 247°
2026-05-04 16:02 49.30026 3.00822 13728 ft 372 kts 247°
2026-05-04 16:02 49.29030 2.97169 13443 ft 371 kts 247°
2026-05-04 16:02 49.27060 2.89947 12994 ft 367 kts 247°
2026-05-04 16:03 49.26089 2.86386 12733 ft 357 kts 247°
2026-05-04 16:03 49.25146 2.82935 12470 ft 347 kts 247°
2026-05-04 16:03 49.24225 2.79569 12214 ft 338 kts 247°
2026-05-04 16:03 49.23327 2.76287 11959 ft 331 kts 247°
2026-05-04 16:04 49.22447 2.73078 11701 ft 323 kts 246°
2026-05-04 16:04 49.20740 2.66877 11190 ft 310 kts 246°
2026-05-04 16:04 49.19909 2.63875 10994 ft 303 kts 246°
2026-05-04 16:05 49.19110 2.60908 10946 ft 302 kts 252°
2026-05-04 16:05 49.18674 2.57777 10957 ft 301 kts 261°
2026-05-04 16:05 49.18082 2.51480 10301 ft 298 kts 262°
2026-05-04 16:06 49.17794 2.48356 9962 ft 296 kts 262°
2026-05-04 16:06 49.17027 2.40125 9001 ft 292 kts 262°
2026-05-04 16:07 49.16646 2.36033 8489 ft 290 kts 262°
2026-05-04 16:07 49.15792 2.26976 7282 ft 283 kts 262°
2026-05-04 16:08 49.15509 2.24010 6721 ft 282 kts 262°
2026-05-04 16:08 49.13592 2.15660 5505 ft 278 kts 242°
2026-05-04 16:09 49.10930 2.11676 4807 ft 272 kts 204°
2026-05-04 16:09 49.07451 2.09352 4502 ft 273 kts 202°
2026-05-04 16:10 49.03943 2.07180 4344 ft 270 kts 191°
2026-05-04 16:11 48.99564 2.10937 4062 ft 259 kts 101°
2026-05-04 16:11 48.99644 2.13604 4005 ft 257 kts 77°
2026-05-04 16:12 49.00715 2.21208 4016 ft 219 kts 82°
2026-05-04 16:12 49.01099 2.27629 3616 ft 196 kts 84°
2026-05-04 16:13 49.01334 2.31803 3075 ft 201 kts 84°
2026-05-04 16:13 49.01565 2.35963 2528 ft 187 kts 85°
2026-05-04 16:14 49.01764 2.39559 2091 ft 155 kts 84°
2026-05-04 16:14 49.01933 2.42632 1699 ft 143 kts 84°
2026-05-04 16:15 49.02149 2.47138 1056 ft 142 kts 84°
2026-05-04 16:16 49.02349 2.50109 765 ft 139 kts 85°
2026-05-04 16:16 49.02565 2.54179 354 ft 88 kts 85°
2026-05-04 16:17 49.02587 2.55210 360 ft 31 kts 106°
2026-05-04 16:18 49.02242 2.55632 354 ft 23 kts 175°
2026-05-04 16:18 49.02078 2.55652 359 ft 24 kts 175°
2026-05-04 16:19 49.01879 2.55413 359 ft 20 kts 265°
2026-05-04 16:19 49.01852 2.54917 361 ft 26 kts 265°
2026-05-04 16:20 49.01810 2.54132 354 ft 15 kts 265°
2026-05-04 16:20 49.01758 2.53864 361 ft 12 kts 240°
2026-05-04 16:21 49.01620 2.53845 354 ft 0 kts 168°
2026-05-04 16:22 49.01616 2.53846 354 ft 0 kts 168°